Вернуться в каталог

DELTA 1 DEB

АктивенSSO
NORAD 27578·DEBRIS·🇺🇸 United States

Запущен Jun 12, 1975 с Vandenberg Space Force Base

Loading…

Ближайшие Пролёты (ближайшие 24 часа)

TLE

СвежийSource: Space-Track

Эпоха: Sep 14, 2026, 05:24 UTC

1 27578U 75052LF  26257.22561972 -.00000676  00000-0 -63481-3 0  9990
2 27578  99.5956 169.2530 0044014 312.4311 202.4879 13.76905345271193

Отслеживайте DELTA 1 DEB в реальном времени с AllMySat

Download on the App Store